Гран При Канады: третья тренировка

Гран При Канады: третья тренировка

Льюис Хэмильтон возглавил протокол последней тренировки Канадского Гран При, но его болид не смог прибавить на более мягком составе.

Субботняя тренировка началась активно, несмотря на то, что дождь не ожидался.

Команды дорабатывали свои программы подготовки к гонке и квалификации. Первую половину сессии пилоты отъездили на мягкой резине, и лишь в конце сделали несколько квалификационных попыток на супермягком составе.

Ожидаемо, на мягкой резине пилоты Mercedes были быстрее остальных на секунду. Кроме того, Хэмилтон был быстрее Росберга на пол секунды.

Однако, на супермягкой резине пилотам Mercedes не удалось улучшить свое время, или же они работали с более полными баками.

Этим воспользовался Фелипе Масса, который показал второе время и вклинился между пилотами серебряных стрел.

Далее в одной секунде от лидера расположились Алонсо, Риккиардо, Райкконен.

Сессия ненадолго прерывалась красными флагами из-за вылета Эстебана Гутьерреса. С трассы вылетали и другие пилоты, но обошлось без повреждений машин. Также, на последних минутах, сошел Камуи Кобаяши.

 
Дата07 июня 2014Погодасолнечно
Киевское время17:00-18:00 ч.Температура20-21°C
Местное время10:00-11:00 ч.Влажность64-67%
Участники22Давление1.013 mBar
Рекорд в гонке1:13.622 мин.Асфальт32-34°C
Рекорд в квалификации1:12.275 мин.Ветер2,5 м/с, северный

Результаты

Поз.ПилотКомандаВремяОтставаниеот пред.Круги
144L. HamiltonMercedes1:15.610  18
219F. MassaWilliams1:16.086+0:00.476+0:00.47616
36N. RosbergMercedes1:16.120+0:00.510+0:00.03420
414F. AlonsoFerrari1:16.488+0:00.878+0:00.36815
53D. RicciardoRed Bull1:16.504+0:00.894+0:00.01615
67K. RäikkönenFerrari1:16.528+0:00.918+0:00.02422
777V. BottasWilliams1:16.684+0:01.074+0:00.15620
826D. KwjatToro Rosso1:16.820+0:01.210+0:00.13621
925J. VergneToro Rosso1:16.824+0:01.214+0:00.00419
101S. VettelRed Bull1:16.884+0:01.274+0:00.06015
1127N. HülkenbergForce India1:16.944+0:01.334+0:00.06017
1220K. MagnussenMcLaren1:16.993+0:01.383+0:00.04919
138R. GrosjeanLotus1:17.121+0:01.511+0:00.12821
1411S. PerezForce India1:17.188+0:01.578+0:00.06719
1513P. MaldonadoLotus1:17.224+0:01.614+0:00.03621
1622J. ButtonMcLaren1:17.360+0:01.750+0:00.13623
1799A. SutilSauber1:17.900+0:02.290+0:00.54023
1817J. BianchiMarussia1:18.518+0:02.908+0:00.61825
194M. ChiltonMarussia1:18.525+0:02.915+0:00.00719
209M. EricssonCaterham1:19.865+0:04.255+0:01.34023
2110K. KobayashiCaterham1:20.227+0:04.617+0:00.36214
 107 % барьер1:20.902 
2221E. GutierrezSauber1:22.388+0:06.778+0:02.1616
от пред. = от предыдущего

Будьте частиною чогось більшого

Написати коментар
Показати коментарі
Про цю статтю
Серія Формула 1
Тип статті Важливі новини